Year,Month,Day,Hour,Minute,Value (Times are PST for temperature in C)
2015,03,18,00,00,6.30
2015,03,18,00,01,6.30
2015,03,18,00,02,6.30
2015,03,18,00,03,6.20
2015,03,18,00,04,6.20
2015,03,18,00,05,6.20
2015,03,18,00,06,6.20
2015,03,18,00,07,6.20
2015,03,18,00,08,6.20
2015,03,18,00,09,6.20
2015,03,18,00,10,6.10
2015,03,18,00,11,6.10
2015,03,18,00,12,6.10
2015,03,18,00,13,6.10
2015,03,18,00,14,6.00
2015,03,18,00,15,6.00
2015,03,18,00,16,6.00
2015,03,18,00,17,6.00
2015,03,18,00,18,5.90
2015,03,18,00,19,5.90
2015,03,18,00,20,5.90
2015,03,18,00,21,5.80
2015,03,18,00,22,5.80
2015,03,18,00,23,5.80
2015,03,18,00,24,5.80
2015,03,18,00,25,5.70
2015,03,18,00,26,5.70
2015,03,18,00,27,5.70
2015,03,18,00,28,5.70
2015,03,18,00,29,5.70
2015,03,18,00,30,5.70
2015,03,18,00,31,5.60
2015,03,18,00,32,5.60
2015,03,18,00,33,5.60
2015,03,18,00,34,5.60
2015,03,18,00,35,5.60
2015,03,18,00,36,5.60
2015,03,18,00,37,5.50
2015,03,18,00,38,5.50
2015,03,18,00,39,5.50
2015,03,18,00,40,5.50
2015,03,18,00,41,5.40
2015,03,18,00,42,5.40
2015,03,18,00,43,5.40
2015,03,18,00,44,5.40
2015,03,18,00,45,5.40
2015,03,18,00,46,5.30
2015,03,18,00,47,5.30
2015,03,18,00,48,5.30
2015,03,18,00,49,5.30
2015,03,18,00,50,5.30
2015,03,18,00,51,5.30
2015,03,18,00,52,5.30
2015,03,18,00,53,5.20
2015,03,18,00,54,5.20
2015,03,18,00,55,5.20
2015,03,18,00,56,5.20
2015,03,18,00,57,5.20
2015,03,18,00,58,5.20
2015,03,18,00,59,5.20
2015,03,18,01,00,5.10
2015,03,18,01,01,5.10
2015,03,18,01,02,5.10
2015,03,18,01,03,5.10
2015,03,18,01,04,5.00
2015,03,18,01,05,5.00
2015,03,18,01,06,5.00
2015,03,18,01,07,5.00
2015,03,18,01,08,5.00
2015,03,18,01,09,4.90
2015,03,18,01,10,4.90
2015,03,18,01,11,4.90
2015,03,18,01,12,4.90
2015,03,18,01,13,4.90
2015,03,18,01,14,4.80
2015,03,18,01,15,4.80
2015,03,18,01,16,4.80
2015,03,18,01,17,4.80
2015,03,18,01,18,4.80
2015,03,18,01,19,4.70
2015,03,18,01,20,4.70
2015,03,18,01,21,4.70
2015,03,18,01,22,4.70
2015,03,18,01,23,4.70
2015,03,18,01,24,4.70
2015,03,18,01,25,4.60
2015,03,18,01,26,4.60
2015,03,18,01,27,4.60
2015,03,18,01,28,4.60
2015,03,18,01,29,4.60
2015,03,18,01,30,4.60
2015,03,18,01,31,4.60
2015,03,18,01,32,4.50
2015,03,18,01,33,4.50
2015,03,18,01,34,4.50
2015,03,18,01,35,4.50
2015,03,18,01,36,4.40
2015,03,18,01,37,4.40
2015,03,18,01,38,4.40
2015,03,18,01,39,4.40
2015,03,18,01,40,4.40
2015,03,18,01,41,4.30
2015,03,18,01,42,4.30
2015,03,18,01,43,4.30
2015,03,18,01,44,4.30
2015,03,18,01,45,4.30
2015,03,18,01,46,4.30
2015,03,18,01,47,4.30
2015,03,18,01,48,4.30
2015,03,18,01,49,4.30
2015,03,18,01,50,4.30
2015,03,18,01,51,4.20
2015,03,18,01,52,4.20
2015,03,18,01,53,4.20
2015,03,18,01,54,4.20
2015,03,18,01,55,4.20
2015,03,18,01,56,4.20
2015,03,18,01,57,4.20
2015,03,18,01,58,4.20
2015,03,18,01,59,4.20
2015,03,18,02,00,4.20
2015,03,18,02,01,4.10
2015,03,18,02,02,4.10
2015,03,18,02,03,4.10
2015,03,18,02,04,4.10
2015,03,18,02,05,4.10
2015,03,18,02,06,4.10
2015,03,18,02,07,4.10
2015,03,18,02,08,4.10
2015,03,18,02,09,4.00
2015,03,18,02,10,4.00
2015,03,18,02,11,4.00
2015,03,18,02,12,4.00
2015,03,18,02,13,4.00
2015,03,18,02,14,4.00
2015,03,18,02,15,4.00
2015,03,18,02,16,4.00
2015,03,18,02,17,4.00
2015,03,18,02,18,3.90
2015,03,18,02,19,3.90
2015,03,18,02,20,3.90
2015,03,18,02,21,3.90
2015,03,18,02,22,3.90
2015,03,18,02,23,3.90
2015,03,18,02,24,3.90
2015,03,18,02,25,3.80
2015,03,18,02,26,3.80
2015,03,18,02,27,3.80
2015,03,18,02,28,3.80
2015,03,18,02,29,3.80
2015,03,18,02,30,3.80
2015,03,18,02,31,3.80
2015,03,18,02,32,3.70
2015,03,18,02,33,3.70
2015,03,18,02,34,3.70
2015,03,18,02,35,3.70
2015,03,18,02,36,3.70
2015,03,18,02,37,3.70
2015,03,18,02,38,3.70
2015,03,18,02,39,3.70
2015,03,18,02,40,3.70
2015,03,18,02,41,3.70
2015,03,18,02,42,3.70
2015,03,18,02,43,3.70
2015,03,18,02,44,3.70
2015,03,18,02,45,3.60
2015,03,18,02,46,3.60
2015,03,18,02,47,3.60
2015,03,18,02,48,3.60
2015,03,18,02,49,3.60
2015,03,18,02,50,3.60
2015,03,18,02,51,3.60
2015,03,18,02,52,3.60
2015,03,18,02,53,3.60
2015,03,18,02,54,3.60
2015,03,18,02,55,3.60
2015,03,18,02,56,3.60
2015,03,18,02,57,3.50
2015,03,18,02,58,3.50
2015,03,18,02,59,3.50
2015,03,18,03,00,3.50
2015,03,18,03,01,3.50
2015,03,18,03,02,3.40
2015,03,18,03,03,3.40
2015,03,18,03,04,3.40
2015,03,18,03,05,3.40
2015,03,18,03,06,3.40
2015,03,18,03,07,3.40
2015,03,18,03,08,3.40
2015,03,18,03,09,3.30
2015,03,18,03,10,3.30
2015,03,18,03,11,3.30
2015,03,18,03,12,3.30
2015,03,18,03,13,3.30
2015,03,18,03,14,3.30
2015,03,18,03,15,3.30
2015,03,18,03,16,3.30
2015,03,18,03,17,3.20
2015,03,18,03,18,3.20
2015,03,18,03,19,3.20
2015,03,18,03,20,3.20
2015,03,18,03,21,3.20
2015,03,18,03,22,3.20
2015,03,18,03,23,3.20
2015,03,18,03,24,3.20
2015,03,18,03,25,3.20
2015,03,18,03,26,3.20
2015,03,18,03,27,3.20
2015,03,18,03,28,3.20
2015,03,18,03,29,3.20
2015,03,18,03,30,3.20
2015,03,18,03,31,3.20
2015,03,18,03,32,3.20
2015,03,18,03,33,3.20
2015,03,18,03,34,3.10
2015,03,18,03,35,3.10
2015,03,18,03,36,3.10
2015,03,18,03,37,3.10
2015,03,18,03,38,3.10
2015,03,18,03,39,3.10
2015,03,18,03,40,3.00
2015,03,18,03,41,3.00
2015,03,18,03,42,3.00
2015,03,18,03,43,3.00
2015,03,18,03,44,3.00
2015,03,18,03,45,3.00
2015,03,18,03,46,3.00
2015,03,18,03,47,3.00
2015,03,18,03,48,3.00
2015,03,18,03,49,3.00
2015,03,18,03,50,2.90
2015,03,18,03,51,2.90
2015,03,18,03,52,2.90
2015,03,18,03,53,2.90
2015,03,18,03,54,2.90
2015,03,18,03,55,2.90
2015,03,18,03,56,2.90
2015,03,18,03,57,2.90
2015,03,18,03,58,2.90
2015,03,18,03,59,2.90
2015,03,18,04,00,2.90
2015,03,18,04,01,2.80
2015,03,18,04,02,2.80
2015,03,18,04,03,2.80
2015,03,18,04,04,2.80
2015,03,18,04,05,2.80
2015,03,18,04,06,2.80
2015,03,18,04,07,2.80
2015,03,18,04,08,2.80
2015,03,18,04,09,2.80
2015,03,18,04,10,2.70
2015,03,18,04,11,2.70
2015,03,18,04,12,2.70
2015,03,18,04,13,2.70
2015,03,18,04,14,2.70
2015,03,18,04,15,2.70
2015,03,18,04,16,2.70
2015,03,18,04,17,2.70
2015,03,18,04,18,2.70
2015,03,18,04,19,2.60
2015,03,18,04,20,2.60
2015,03,18,04,21,2.60
2015,03,18,04,22,2.60
2015,03,18,04,23,2.60
2015,03,18,04,24,2.60
2015,03,18,04,25,2.60
2015,03,18,04,26,2.60
2015,03,18,04,27,2.60
2015,03,18,04,28,2.60
2015,03,18,04,29,2.60
2015,03,18,04,30,2.60
2015,03,18,04,31,2.60
2015,03,18,04,32,2.60
2015,03,18,04,33,2.60
2015,03,18,04,34,2.60
2015,03,18,04,35,2.60
2015,03,18,04,36,2.60
2015,03,18,04,37,2.60
2015,03,18,04,38,2.60
2015,03,18,04,39,2.60
2015,03,18,04,40,2.60
2015,03,18,04,41,2.60
2015,03,18,04,42,2.60
2015,03,18,04,43,2.60
2015,03,18,04,44,2.60
2015,03,18,04,45,2.60
2015,03,18,04,46,2.60
2015,03,18,04,47,2.60
2015,03,18,04,48,2.60
2015,03,18,04,49,2.60
2015,03,18,04,50,2.60
2015,03,18,04,51,2.50
2015,03,18,04,52,2.50
2015,03,18,04,53,2.50
2015,03,18,04,54,2.50
2015,03,18,04,55,2.50
2015,03,18,04,56,2.40
2015,03,18,04,57,2.40
2015,03,18,04,58,2.40
2015,03,18,04,59,2.40
2015,03,18,05,00,2.40
2015,03,18,05,01,2.40
2015,03,18,05,02,2.40
2015,03,18,05,03,2.30
2015,03,18,05,04,2.30
2015,03,18,05,05,2.30
2015,03,18,05,06,2.30
2015,03,18,05,07,2.30
2015,03,18,05,08,2.30
2015,03,18,05,09,2.30
2015,03,18,05,10,2.30
2015,03,18,05,11,2.30
2015,03,18,05,12,2.30
2015,03,18,05,13,2.30
2015,03,18,05,14,2.30
2015,03,18,05,15,2.30
2015,03,18,05,16,2.30
2015,03,18,05,17,2.30
2015,03,18,05,18,2.30
2015,03,18,05,19,2.30
2015,03,18,05,20,2.30
2015,03,18,05,21,2.30
2015,03,18,05,22,2.30
2015,03,18,05,23,2.30
2015,03,18,05,24,2.30
2015,03,18,05,25,2.30
2015,03,18,05,26,2.30
2015,03,18,05,27,2.30
2015,03,18,05,28,2.30
2015,03,18,05,29,2.30
2015,03,18,05,30,2.30
2015,03,18,05,31,2.30
2015,03,18,05,32,2.30
2015,03,18,05,33,2.30
2015,03,18,05,34,2.30
2015,03,18,05,35,2.30
2015,03,18,05,36,2.30
2015,03,18,05,37,2.30
2015,03,18,05,38,2.30
2015,03,18,05,39,2.30
2015,03,18,05,40,2.20
2015,03,18,05,41,2.20
2015,03,18,05,42,2.20
2015,03,18,05,43,2.20
2015,03,18,05,44,2.20
2015,03,18,05,45,2.20
2015,03,18,05,46,2.20
2015,03,18,05,47,2.10
2015,03,18,05,48,2.10
2015,03,18,05,49,2.10
2015,03,18,05,50,2.10
2015,03,18,05,51,2.10
2015,03,18,05,52,2.10
2015,03,18,05,53,2.00
2015,03,18,05,54,2.00
2015,03,18,05,55,2.00
2015,03,18,05,56,2.00
2015,03,18,05,57,2.00
2015,03,18,05,58,2.00
2015,03,18,05,59,2.00
2015,03,18,06,00,2.00
2015,03,18,06,01,2.00
2015,03,18,06,02,2.00
2015,03,18,06,03,2.00
2015,03,18,06,04,1.90
2015,03,18,06,05,1.90
2015,03,18,06,06,2.00
2015,03,18,06,07,2.00
2015,03,18,06,08,2.00
2015,03,18,06,09,2.00
2015,03,18,06,10,2.00
2015,03,18,06,11,2.00
2015,03,18,06,12,2.00
2015,03,18,06,13,1.90
2015,03,18,06,14,1.90
2015,03,18,06,15,1.90
2015,03,18,06,16,1.90
2015,03,18,06,17,1.90
2015,03,18,06,18,1.90
2015,03,18,06,19,1.90
2015,03,18,06,20,1.90
2015,03,18,06,21,1.80
2015,03,18,06,22,1.80
2015,03,18,06,23,1.80
2015,03,18,06,24,1.80
2015,03,18,06,25,1.80
2015,03,18,06,26,1.80
2015,03,18,06,27,1.80
2015,03,18,06,28,1.80
2015,03,18,06,29,1.80
2015,03,18,06,30,1.80
2015,03,18,06,31,1.80
2015,03,18,06,32,1.70
2015,03,18,06,33,1.70
2015,03,18,06,34,1.70
2015,03,18,06,35,1.70
2015,03,18,06,36,1.70
2015,03,18,06,37,1.70
2015,03,18,06,38,1.70
2015,03,18,06,39,1.70
2015,03,18,06,40,1.70
2015,03,18,06,41,1.70
2015,03,18,06,42,1.70
2015,03,18,06,43,1.70
2015,03,18,06,44,1.70
2015,03,18,06,45,1.70
2015,03,18,06,46,1.70
2015,03,18,06,47,1.70
2015,03,18,06,48,1.70
2015,03,18,06,49,1.70
2015,03,18,06,50,1.70
2015,03,18,06,51,1.60
2015,03,18,06,52,1.60
2015,03,18,06,53,1.60
2015,03,18,06,54,1.60
2015,03,18,06,55,1.60
2015,03,18,06,56,1.60
2015,03,18,06,57,1.70
2015,03,18,06,58,1.70
2015,03,18,06,59,1.70
2015,03,18,07,00,1.70
2015,03,18,07,01,1.70
2015,03,18,07,02,1.70
2015,03,18,07,03,1.60
2015,03,18,07,04,1.60
2015,03,18,07,05,1.60
2015,03,18,07,06,1.60
2015,03,18,07,07,1.60
2015,03,18,07,08,1.60
2015,03,18,07,09,1.60
2015,03,18,07,10,1.60
2015,03,18,07,11,1.60
2015,03,18,07,12,1.60
2015,03,18,07,13,1.60
2015,03,18,07,14,1.70
2015,03,18,07,15,1.70
2015,03,18,07,16,1.70
2015,03,18,07,17,1.70
2015,03,18,07,18,1.70
2015,03,18,07,19,1.70
2015,03,18,07,20,1.70
2015,03,18,07,21,1.80
2015,03,18,07,22,1.80
2015,03,18,07,23,1.80
2015,03,18,07,24,1.80
2015,03,18,07,25,1.80
2015,03,18,07,26,1.90
2015,03,18,07,27,1.90
2015,03,18,07,28,1.90
2015,03,18,07,29,1.90
2015,03,18,07,30,1.90
2015,03,18,07,31,1.90
2015,03,18,07,32,2.00
2015,03,18,07,33,2.00
2015,03,18,07,34,2.10
2015,03,18,07,35,2.10
2015,03,18,07,36,2.10
2015,03,18,07,37,2.10
2015,03,18,07,38,2.10
2015,03,18,07,39,2.10
2015,03,18,07,40,2.20
2015,03,18,07,41,2.20
2015,03,18,07,42,2.20
2015,03,18,07,43,2.20
2015,03,18,07,44,2.20
2015,03,18,07,45,2.20
2015,03,18,07,46,2.20
2015,03,18,07,47,2.30
2015,03,18,07,48,2.30
2015,03,18,07,49,2.30
2015,03,18,07,50,2.30
2015,03,18,07,51,2.30
2015,03,18,07,52,2.40
2015,03,18,07,53,2.40
2015,03,18,07,54,2.40
2015,03,18,07,55,2.40
2015,03,18,07,56,2.40
2015,03,18,07,57,2.50
2015,03,18,07,58,2.50
2015,03,18,07,59,2.50
2015,03,18,08,00,2.60
2015,03,18,08,01,2.60
2015,03,18,08,02,2.60
2015,03,18,08,03,2.60
2015,03,18,08,04,2.70
2015,03,18,08,05,2.70
2015,03,18,08,06,2.70
2015,03,18,08,07,2.70
2015,03,18,08,08,2.80
2015,03,18,08,09,2.80
2015,03,18,08,10,2.80
2015,03,18,08,11,2.80
2015,03,18,08,12,2.90
2015,03,18,08,13,2.90
2015,03,18,08,14,2.90
2015,03,18,08,15,2.90
2015,03,18,08,16,2.90
2015,03,18,08,17,3.00
2015,03,18,08,18,3.00
2015,03,18,08,19,3.00
2015,03,18,08,20,3.00
2015,03,18,08,21,3.10
2015,03,18,08,22,3.10
2015,03,18,08,23,3.10
2015,03,18,08,24,3.10
2015,03,18,08,25,3.10
2015,03,18,08,26,3.20
2015,03,18,08,27,3.20
2015,03,18,08,28,3.20
2015,03,18,08,29,3.20
2015,03,18,08,30,3.20
2015,03,18,08,31,3.20
2015,03,18,08,32,3.20
2015,03,18,08,33,3.20
2015,03,18,08,34,3.20
2015,03,18,08,35,3.30
2015,03,18,08,36,3.30
2015,03,18,08,37,3.30
2015,03,18,08,38,3.40
2015,03,18,08,39,3.40
2015,03,18,08,40,3.50
2015,03,18,08,41,3.50
2015,03,18,08,42,3.60
2015,03,18,08,43,3.60
2015,03,18,08,44,3.70
2015,03,18,08,45,3.80
2015,03,18,08,46,3.80
2015,03,18,08,47,3.90
2015,03,18,08,48,3.90
2015,03,18,08,49,4.00
2015,03,18,08,50,4.00
2015,03,18,08,51,4.00
2015,03,18,08,52,4.10
2015,03,18,08,53,4.10
2015,03,18,08,54,4.20
2015,03,18,08,55,4.20
2015,03,18,08,56,4.20
2015,03,18,08,57,4.20
2015,03,18,08,58,4.20
2015,03,18,08,59,4.30
2015,03,18,09,00,4.30
2015,03,18,09,01,4.30
2015,03,18,09,02,4.30
2015,03,18,09,03,4.30
2015,03,18,09,04,4.30
2015,03,18,09,05,4.40
2015,03,18,09,06,4.40
2015,03,18,09,07,4.40
2015,03,18,09,08,4.40
2015,03,18,09,09,4.50
2015,03,18,09,10,4.50
2015,03,18,09,11,4.50
2015,03,18,09,12,4.60
2015,03,18,09,13,4.60
2015,03,18,09,14,4.60
2015,03,18,09,15,4.70
2015,03,18,09,16,4.70
2015,03,18,09,17,4.70
2015,03,18,09,18,4.70
2015,03,18,09,19,4.80
2015,03,18,09,20,4.80
2015,03,18,09,21,4.80
2015,03,18,09,22,4.80
2015,03,18,09,23,4.80
2015,03,18,09,24,4.80
2015,03,18,09,25,4.80
2015,03,18,09,26,4.80
2015,03,18,09,27,4.90
2015,03,18,09,28,4.90
2015,03,18,09,29,4.90
2015,03,18,09,30,4.90
2015,03,18,09,31,4.90
2015,03,18,09,32,5.00
2015,03,18,09,33,5.00
2015,03,18,09,34,5.10
2015,03,18,09,35,5.10
2015,03,18,09,36,5.10
2015,03,18,09,37,5.20
2015,03,18,09,38,5.20
2015,03,18,09,39,5.20
2015,03,18,09,40,5.20
2015,03,18,09,41,5.30
2015,03,18,09,42,5.30
2015,03,18,09,43,5.30
2015,03,18,09,44,5.30
2015,03,18,09,45,5.40
2015,03,18,09,46,5.40
2015,03,18,09,47,5.40
2015,03,18,09,48,5.40
2015,03,18,09,49,5.50
2015,03,18,09,50,5.50
2015,03,18,09,51,5.50
2015,03,18,09,52,5.60
2015,03,18,09,53,5.60
2015,03,18,09,54,5.60
2015,03,18,09,55,5.60
2015,03,18,09,56,5.70
2015,03,18,09,57,5.70
2015,03,18,09,58,5.70
2015,03,18,09,59,5.70
2015,03,18,10,00,5.70
2015,03,18,10,01,5.80
2015,03,18,10,02,5.80
2015,03,18,10,03,5.80
2015,03,18,10,04,5.80
2015,03,18,10,05,5.90
2015,03,18,10,06,5.90
2015,03,18,10,07,5.90
2015,03,18,10,08,6.00
2015,03,18,10,09,6.00
2015,03,18,10,10,6.10
2015,03,18,10,11,6.10
2015,03,18,10,12,6.20
2015,03,18,10,13,6.20
2015,03,18,10,14,6.30
2015,03,18,10,15,6.30
2015,03,18,10,16,6.30
2015,03,18,10,17,6.40
2015,03,18,10,18,6.40
2015,03,18,10,19,6.40
2015,03,18,10,20,6.50
2015,03,18,10,21,6.50
2015,03,18,10,22,6.60
2015,03,18,10,23,6.60
2015,03,18,10,24,6.70
2015,03,18,10,25,6.70
2015,03,18,10,26,6.80
2015,03,18,10,27,6.80
2015,03,18,10,28,6.80
2015,03,18,10,29,6.90
2015,03,18,10,30,6.90
2015,03,18,10,31,7.00
2015,03,18,10,32,7.10
2015,03,18,10,33,7.10
2015,03,18,10,34,7.20
2015,03,18,10,35,7.20
2015,03,18,10,36,7.30
2015,03,18,10,37,7.30
2015,03,18,10,38,7.40
2015,03,18,10,39,7.40
2015,03,18,10,40,7.40
2015,03,18,10,41,7.50
2015,03,18,10,42,7.50
2015,03,18,10,43,7.60
2015,03,18,10,44,7.60
2015,03,18,10,45,7.70
2015,03,18,10,46,7.70
2015,03,18,10,47,7.80
2015,03,18,10,48,7.80
2015,03,18,10,49,7.90
2015,03,18,10,50,7.90
2015,03,18,10,51,8.00
2015,03,18,10,52,8.10
2015,03,18,10,53,8.10
2015,03,18,10,54,8.10
2015,03,18,10,55,8.20
2015,03,18,10,56,8.20
2015,03,18,10,57,8.20
2015,03,18,10,58,8.20
2015,03,18,10,59,8.30
2015,03,18,11,00,8.30
2015,03,18,11,01,8.30
2015,03,18,11,02,8.40
2015,03,18,11,03,8.40
2015,03,18,11,04,8.40
2015,03,18,11,05,8.40
2015,03,18,11,06,8.50
2015,03,18,11,07,8.50
2015,03,18,11,08,8.60
2015,03,18,11,09,8.60
2015,03,18,11,10,8.60
2015,03,18,11,11,8.60
2015,03,18,11,12,8.60
2015,03,18,11,13,8.60
2015,03,18,11,14,8.60
2015,03,18,11,15,8.60
2015,03,18,11,16,8.60
2015,03,18,11,17,8.50
2015,03,18,11,18,8.50
2015,03,18,11,19,8.40
2015,03,18,11,20,8.40
2015,03,18,11,21,8.40
2015,03,18,11,22,8.40
2015,03,18,11,23,8.40
2015,03,18,11,24,8.40
2015,03,18,11,25,8.40
2015,03,18,11,26,8.40
2015,03,18,11,27,8.40
2015,03,18,11,28,8.40
2015,03,18,11,29,8.40
2015,03,18,11,30,8.40
2015,03,18,11,31,8.40
2015,03,18,11,32,8.40
2015,03,18,11,33,8.30
2015,03,18,11,34,8.30
2015,03,18,11,35,8.30
2015,03,18,11,36,8.30
2015,03,18,11,37,8.30
2015,03,18,11,38,8.40
2015,03,18,11,39,8.30
2015,03,18,11,40,8.30
2015,03,18,11,41,8.30
2015,03,18,11,42,8.30
2015,03,18,11,43,8.30
2015,03,18,11,44,8.40
2015,03,18,11,45,8.40
2015,03,18,11,46,8.40
2015,03,18,11,47,8.40
2015,03,18,11,48,8.40
2015,03,18,11,49,8.40
2015,03,18,11,50,8.50
2015,03,18,11,51,8.50
2015,03,18,11,52,8.50
2015,03,18,11,53,8.50
2015,03,18,11,54,8.60
2015,03,18,11,55,8.60
2015,03,18,11,56,8.70
2015,03,18,11,57,8.70
2015,03,18,11,58,8.80
2015,03,18,11,59,8.80
2015,03,18,12,00,8.90
2015,03,18,12,01,8.90
2015,03,18,12,02,9.00
2015,03,18,12,03,9.10
2015,03,18,12,04,9.10
2015,03,18,12,05,9.10
2015,03,18,12,06,9.20
2015,03,18,12,07,9.20
2015,03,18,12,08,9.20
2015,03,18,12,09,9.30
2015,03,18,12,10,9.30
2015,03,18,12,11,9.40
2015,03,18,12,12,9.40
2015,03,18,12,13,9.40
2015,03,18,12,14,9.40
2015,03,18,12,15,9.50
2015,03,18,12,16,9.50
2015,03,18,12,17,9.60
2015,03,18,12,18,9.60
2015,03,18,12,19,9.70
2015,03,18,12,20,9.70
2015,03,18,12,21,9.70
2015,03,18,12,22,9.80
2015,03,18,12,23,9.80
2015,03,18,12,24,9.80
2015,03,18,12,25,9.80
2015,03,18,12,26,9.80
2015,03,18,12,27,9.70
2015,03,18,12,28,9.70
2015,03,18,12,29,9.70
2015,03,18,12,30,9.70
2015,03,18,12,31,9.70
2015,03,18,12,32,9.70
2015,03,18,12,33,9.70
2015,03,18,12,34,9.70
2015,03,18,12,35,9.70
2015,03,18,12,36,9.70
2015,03,18,12,37,9.70
2015,03,18,12,38,9.70
2015,03,18,12,39,9.70
2015,03,18,12,40,9.70
2015,03,18,12,41,9.70
2015,03,18,12,42,9.70
2015,03,18,12,43,9.70
2015,03,18,12,44,9.70
2015,03,18,12,45,9.70
2015,03,18,12,46,9.70
2015,03,18,12,47,9.70
2015,03,18,12,48,9.70
2015,03,18,12,49,9.70
2015,03,18,12,50,9.70
2015,03,18,12,51,9.70
2015,03,18,12,52,9.70
2015,03,18,12,53,9.70
2015,03,18,12,54,9.70
2015,03,18,12,55,9.80
2015,03,18,12,56,9.80
2015,03,18,12,57,9.80
2015,03,18,12,58,9.80
2015,03,18,12,59,9.80
2015,03,18,13,00,9.80
2015,03,18,13,01,9.80
2015,03,18,13,02,9.90
2015,03,18,13,03,9.90
2015,03,18,13,04,9.90
2015,03,18,13,05,9.90
2015,03,18,13,06,9.80
2015,03,18,13,07,9.80
2015,03,18,13,08,9.80
2015,03,18,13,09,9.80
2015,03,18,13,10,9.70
2015,03,18,13,11,9.70
2015,03,18,13,12,9.70
2015,03,18,13,13,9.70
2015,03,18,13,14,9.70
2015,03,18,13,15,9.70
2015,03,18,13,16,9.70
2015,03,18,13,17,9.70
2015,03,18,13,18,9.70
2015,03,18,13,19,9.70
2015,03,18,13,20,9.70
2015,03,18,13,21,9.70
2015,03,18,13,22,9.70
2015,03,18,13,23,9.70
2015,03,18,13,24,9.70
2015,03,18,13,25,9.70
2015,03,18,13,26,9.70
2015,03,18,13,27,9.70
2015,03,18,13,28,9.70
2015,03,18,13,29,9.70
2015,03,18,13,30,9.70
2015,03,18,13,31,9.70
2015,03,18,13,32,9.70
2015,03,18,13,33,9.80
2015,03,18,13,34,9.80
2015,03,18,13,35,9.80
2015,03,18,13,36,9.80
2015,03,18,13,37,9.80
2015,03,18,13,38,9.80
2015,03,18,13,39,9.80
2015,03,18,13,40,9.80
2015,03,18,13,41,9.80
2015,03,18,13,42,9.80
2015,03,18,13,43,9.70
2015,03,18,13,44,9.70
2015,03,18,13,45,9.70
2015,03,18,13,46,9.70
2015,03,18,13,47,9.70
2015,03,18,13,48,9.70
2015,03,18,13,49,9.70
2015,03,18,13,50,9.70
2015,03,18,13,51,9.60
2015,03,18,13,52,9.60
2015,03,18,13,53,9.60
2015,03,18,13,54,9.60
2015,03,18,13,55,9.60
2015,03,18,13,56,9.60
2015,03,18,13,57,9.60
2015,03,18,13,58,9.50
2015,03,18,13,59,9.50
2015,03,18,14,00,9.50
2015,03,18,14,01,9.40
2015,03,18,14,02,9.40
2015,03,18,14,03,9.40
2015,03,18,14,04,9.40
2015,03,18,14,05,9.40
2015,03,18,14,06,9.40
2015,03,18,14,07,9.40
2015,03,18,14,08,9.40
2015,03,18,14,09,9.40
2015,03,18,14,10,9.40
2015,03,18,14,11,9.40
2015,03,18,14,12,9.40
2015,03,18,14,13,9.40
2015,03,18,14,14,9.40
2015,03,18,14,15,9.40
2015,03,18,14,16,9.40
2015,03,18,14,17,9.40
2015,03,18,14,18,9.50
2015,03,18,14,19,9.50
2015,03,18,14,20,9.50
2015,03,18,14,21,9.50
2015,03,18,14,22,9.50
2015,03,18,14,23,9.60
2015,03,18,14,24,9.60
2015,03,18,14,25,9.60
2015,03,18,14,26,9.60
2015,03,18,14,27,9.60
2015,03,18,14,28,9.60
2015,03,18,14,29,9.60
2015,03,18,14,30,9.60
2015,03,18,14,31,9.60
2015,03,18,14,32,9.60
2015,03,18,14,33,9.60
2015,03,18,14,34,9.60
2015,03,18,14,35,9.60
2015,03,18,14,36,9.60
2015,03,18,14,37,9.60
2015,03,18,14,38,9.60
2015,03,18,14,39,9.70
2015,03,18,14,40,9.70
2015,03,18,14,41,9.70
2015,03,18,14,42,9.70
2015,03,18,14,43,9.70
2015,03,18,14,44,9.70
2015,03,18,14,45,9.70
2015,03,18,14,46,9.80
2015,03,18,14,47,9.80
2015,03,18,14,48,9.80
2015,03,18,14,49,9.80
2015,03,18,14,50,9.80
2015,03,18,14,51,9.80
2015,03,18,14,52,9.80
2015,03,18,14,53,9.80
2015,03,18,14,54,9.80
2015,03,18,14,55,9.80
2015,03,18,14,56,9.90
2015,03,18,14,57,9.90
2015,03,18,14,58,9.90
2015,03,18,14,59,9.90
2015,03,18,15,00,9.90
2015,03,18,15,01,10.00
2015,03,18,15,02,10.00
2015,03,18,15,03,10.00
2015,03,18,15,04,10.00
2015,03,18,15,05,10.10
2015,03,18,15,06,10.10
2015,03,18,15,07,10.10
2015,03,18,15,08,10.20
2015,03,18,15,09,10.20
2015,03,18,15,10,10.20
2015,03,18,15,11,10.20
2015,03,18,15,12,10.30
2015,03,18,15,13,10.30
2015,03,18,15,14,10.30
2015,03,18,15,15,10.30
2015,03,18,15,16,10.30
2015,03,18,15,17,10.40
2015,03,18,15,18,10.40
2015,03,18,15,19,10.40
2015,03,18,15,20,10.40
2015,03,18,15,21,10.40
2015,03,18,15,22,10.40
2015,03,18,15,23,10.40
2015,03,18,15,24,10.40
2015,03,18,15,25,10.40
2015,03,18,15,26,10.40
2015,03,18,15,27,10.40
2015,03,18,15,28,10.40
2015,03,18,15,29,10.40
2015,03,18,15,30,10.40
2015,03,18,15,31,10.40
2015,03,18,15,32,10.40
2015,03,18,15,33,10.40
2015,03,18,15,34,10.40
2015,03,18,15,35,10.40
2015,03,18,15,36,10.40
2015,03,18,15,37,10.40
2015,03,18,15,38,10.40
2015,03,18,15,39,10.40
2015,03,18,15,40,10.40
2015,03,18,15,41,10.40
2015,03,18,15,42,10.40
2015,03,18,15,43,10.40
2015,03,18,15,44,10.40
2015,03,18,15,45,10.40
2015,03,18,15,46,10.40
2015,03,18,15,47,10.50
2015,03,18,15,48,10.50
2015,03,18,15,49,10.50
2015,03,18,15,50,10.60
2015,03,18,15,51,10.60
2015,03,18,15,52,10.60
2015,03,18,15,53,10.60
2015,03,18,15,54,10.60
2015,03,18,15,55,10.60
2015,03,18,15,56,10.50
2015,03,18,15,57,10.50
2015,03,18,15,58,10.50
2015,03,18,15,59,10.50
2015,03,18,16,00,10.50
2015,03,18,16,01,10.50
2015,03,18,16,02,10.50
2015,03,18,16,03,10.40
2015,03,18,16,04,10.40
2015,03,18,16,05,10.40
2015,03,18,16,06,10.30
2015,03,18,16,07,10.30
2015,03,18,16,08,10.20
2015,03,18,16,09,10.20
2015,03,18,16,10,10.20
2015,03,18,16,11,10.20
2015,03,18,16,12,10.20
2015,03,18,16,13,10.20
2015,03,18,16,14,10.20
2015,03,18,16,15,10.20
2015,03,18,16,16,10.20
2015,03,18,16,17,10.20
2015,03,18,16,18,10.20
2015,03,18,16,19,10.20
2015,03,18,16,20,10.20
2015,03,18,16,21,10.20
2015,03,18,16,22,10.20
2015,03,18,16,23,10.20
2015,03,18,16,24,10.20
2015,03,18,16,25,10.20
2015,03,18,16,26,10.10
2015,03,18,16,27,10.10
2015,03,18,16,28,10.10
2015,03,18,16,29,10.10
2015,03,18,16,30,10.10
2015,03,18,16,31,10.00
2015,03,18,16,32,10.00
2015,03,18,16,33,10.00
2015,03,18,16,34,10.00
2015,03,18,16,35,10.00
2015,03,18,16,36,9.90
2015,03,18,16,37,9.90
2015,03,18,16,38,9.90
2015,03,18,16,39,9.90
2015,03,18,16,40,9.90
2015,03,18,16,41,9.90
2015,03,18,16,42,9.90
2015,03,18,16,43,9.90
2015,03,18,16,44,9.90
2015,03,18,16,45,9.90
2015,03,18,16,46,9.90
2015,03,18,16,47,9.90
2015,03,18,16,48,10.00
2015,03,18,16,49,10.00
2015,03,18,16,50,10.00
2015,03,18,16,51,10.10
2015,03,18,16,52,10.10
2015,03,18,16,53,10.10
2015,03,18,16,54,10.10
2015,03,18,16,55,10.20
2015,03,18,16,56,10.20
2015,03,18,16,57,10.20
2015,03,18,16,58,10.20
2015,03,18,16,59,10.30
2015,03,18,17,00,10.30
2015,03,18,17,01,10.30
2015,03,18,17,02,10.30
2015,03,18,17,03,10.30
2015,03,18,17,04,10.30
2015,03,18,17,05,10.30
2015,03,18,17,06,10.30
2015,03,18,17,07,10.30
2015,03,18,17,08,10.30
2015,03,18,17,09,10.30
2015,03,18,17,10,10.30
2015,03,18,17,11,10.30
2015,03,18,17,12,10.30
2015,03,18,17,13,10.30
2015,03,18,17,14,10.30
2015,03,18,17,15,10.30
2015,03,18,17,16,10.30
2015,03,18,17,17,10.30
2015,03,18,17,18,10.30
2015,03,18,17,19,10.30
2015,03,18,17,20,10.30
2015,03,18,17,21,10.30
2015,03,18,17,22,10.30
2015,03,18,17,23,10.30
2015,03,18,17,24,10.30
2015,03,18,17,25,10.20
2015,03,18,17,26,10.20
2015,03,18,17,27,10.20
2015,03,18,17,28,10.20
2015,03,18,17,29,10.20
2015,03,18,17,30,10.20
2015,03,18,17,31,10.20
2015,03,18,17,32,10.20
2015,03,18,17,33,10.20
2015,03,18,17,34,10.10
2015,03,18,17,35,10.10
2015,03,18,17,36,10.10
2015,03,18,17,37,10.10
2015,03,18,17,38,10.10
2015,03,18,17,39,10.10
2015,03,18,17,40,10.10
2015,03,18,17,41,10.00
2015,03,18,17,42,10.00
2015,03,18,17,43,10.00
2015,03,18,17,44,10.00
2015,03,18,17,45,10.00
2015,03,18,17,46,9.90
2015,03,18,17,47,9.90
2015,03,18,17,48,9.90
2015,03,18,17,49,9.90
2015,03,18,17,50,9.90
2015,03,18,17,51,9.90
2015,03,18,17,52,9.90
2015,03,18,17,53,9.90
2015,03,18,17,54,9.80
2015,03,18,17,55,9.80
2015,03,18,17,56,9.80
2015,03,18,17,57,9.80
2015,03,18,17,58,9.80
2015,03,18,17,59,9.80